Preview of NWS' New Version of Forecast
This preview is not operational and should not be used for support decisions.

Regional Weather Roundup (RWR)

Issued by National Weather Service (NWS)

                            
000
ASUS43 KTOP 190459
RWRKS 

WEATHER ROUNDUP FOR KANSAS
NATIONAL WEATHER SERVICE GOODLAND KS
1100 PM CST MON FEB 18 2019

NOTE:  "FAIR" INDICATES FEW OR NO CLOUDS BELOW 12,000 FEET WITH NO
SIGNIFICANT WEATHER AND/OR OBSTRUCTIONS TO VISIBILITY.

KSZ001>006-013>018-027>032-041>047-190600-
NORTHWEST KANSAS
  
CITY           SKY/WX    TMP DP  RH WIND       PRES   REMARKS
GOODLAND       CLOUDY    14  11  87 SE14      30.24F WCI  -1          
HAYS           CLOUDY    11   9  92 NE6       30.44S                  
HILL CITY      MOCLDY    10   8  92 E3        30.42R                  
RUSSELL        CLOUDY    12  11  95 NE5       30.43S                  
$$

KSZ061>065-074>080-084>089-190600-
SOUTHWEST KANSAS
  
CITY           SKY/WX    TMP DP  RH WIND       PRES   REMARKS
DODGE CITY     CLOUDY    16  10  77 E9        30.35S                  
GARDEN CITY    CLOUDY    14  11  87 E10       30.31F WCI   1          
GREAT BEND     CLOUDY    17  13  84 NE6       30.43S                  
LIBERAL        CLOUDY    18  12  77 E10       30.31F WCI   6          
$$

KSZ066>073-081>083-090>101-190600-
SOUTHEAST KANSAS
  
CITY           SKY/WX    TMP DP  RH WIND       PRES   REMARKS
CHANUTE        CLOUDY    27  17  66 E7        30.50R                  
COFFEYVILLE    CLOUDY    27  19  72 NE9       30.50R                  
HUTCHINSON     CLOUDY    22  17  81 NE5       30.45S                  
MEDICINE LODGE   N/A     23  15  71 NE8       30.41F                  
NEWTON         CLOUDY    21  17  84 E8        30.46                   
PARSONS        CLOUDY    26  19  74 VRB3      30.51R                  
WICHITA INTL   CLOUDY    26  18  71 E9        30.45S                  
WICHITA JABRA  CLOUDY    24  16  71 E8        30.45S                  
WICHITA MCCONL CLOUDY    25  16  68 E8        30.44S                  
WINFIELD       CLOUDY    26  16  65 E9        30.46F                  
$$

KSZ007>012-019>026-033>040-048>060-102>105-190600-
NORTHEAST KANSAS
  
CITY           SKY/WX    TMP DP  RH WIND       PRES   REMARKS
CONCORDIA      CLOUDY    13  10  88 CALM      30.49R                  
EMPORIA        CLOUDY    20  17  88 NE8       30.48S                  
LAWRENCE       CLOUDY    20  14  77 N5        30.54S                  
MANHATTAN      CLOUDY    20  14  77 E7        30.51S                  
OLATHE IND     CLOUDY    20  15  81 CALM      30.52S                  
OLATHE EXE     PTCLDY    20  15  81 E6        30.51F                  
SALINA         CLOUDY    19  14  81 NE5       30.50S                  
TOPEKA BILLARD CLOUDY    19  13  77 NE7       30.53F                  
TOPEKA FORBES  CLOUDY    19  13  77 NE7       30.50F                  
$$